Time,TemperatureF,DewpointF,PressureIn,WindDirection,WindDirectionDegrees,WindSpeedMPH,WindSpeedGustMPH,Humidity,HourlyPrecipIn,Conditions,Clouds,dailyrainin,SoftwareType,DateUTC
2013-05-22 00:00:00,46.6,43.5,29.71,NNW,347,4.0,13.0,89,0.01,,,0.10,VWS V14.01,2013-05-22 05:00:00,
2013-05-22 00:05:00,46.7,43.6,29.71,North,6,5.0,10.0,89,0.01,,,0.00,VWS V14.01,2013-05-22 05:05:00,
2013-05-22 00:10:00,46.6,43.5,29.71,North,355,5.0,10.0,89,0.01,,,0.00,VWS V14.01,2013-05-22 05:10:00,
2013-05-22 00:15:00,46.6,43.5,29.71,NNW,331,5.0,10.0,89,0.01,,,0.00,VWS V14.01,2013-05-22 05:15:00,
2013-05-22 00:20:00,46.5,43.4,29.71,North,358,10.0,14.0,89,0.01,,,0.00,VWS V14.01,2013-05-22 05:20:00,
2013-05-22 00:25:00,46.5,43.4,29.71,North,351,7.0,14.0,89,0.01,,,0.00,VWS V14.01,2013-05-22 05:25:00,
2013-05-22 00:30:00,46.4,43.3,29.71,North,8,5.0,14.0,89,0.02,,,0.01,VWS V14.01,2013-05-22 05:30:00,
2013-05-22 00:35:00,46.4,43.3,29.71,NNE,12,3.0,9.0,89,0.01,,,0.01,VWS V14.01,2013-05-22 05:35:00,
2013-05-22 00:40:00,46.4,43.6,29.71,North,350,5.0,9.0,90,0.01,,,0.01,VWS V14.01,2013-05-22 05:40:00,
2013-05-22 00:45:00,46.4,43.6,29.71,North,6,2.0,10.0,90,0.01,,,0.01,VWS V14.01,2013-05-22 05:45:00,
2013-05-22 00:50:00,46.4,43.6,29.71,NNE,33,7.0,10.0,90,0.01,,,0.01,VWS V14.01,2013-05-22 05:50:00,
2013-05-22 00:55:00,46.4,43.6,29.71,North,11,4.0,15.0,90,0.01,,,0.01,VWS V14.01,2013-05-22 05:55:00,
2013-05-22 01:00:00,46.3,43.5,29.71,NNE,24,6.0,15.0,90,0.01,,,0.01,VWS V14.01,2013-05-22 06:00:00,
2013-05-22 01:05:00,46.2,43.4,29.71,NNE,12,9.0,12.0,90,0.01,,,0.01,VWS V14.01,2013-05-22 06:05:00,
2013-05-22 01:11:00,46.1,43.3,29.71,North,360,5.0,12.0,90,0.01,,,0.01,VWS V14.01,2013-05-22 06:11:00,
2013-05-22 01:16:00,46.1,43.3,29.71,NNW,345,9.0,12.0,90,0.01,,,0.01,VWS V14.01,2013-05-22 06:16:00,
2013-05-22 01:21:00,46.1,43.3,29.71,NNW,343,6.0,12.0,90,0.01,,,0.01,VWS V14.01,2013-05-22 06:21:00,
2013-05-22 01:26:00,46.1,43.3,29.71,NNE,19,10.0,12.0,90,0.01,,,0.01,VWS V14.01,2013-05-22 06:26:00,
2013-05-22 01:31:00,46.0,43.2,29.71,NNE,17,4.0,12.0,90,0.01,,,0.01,VWS V14.01,2013-05-22 06:31:00,
2013-05-22 01:36:00,46.1,43.3,29.71,North,4,5.0,10.0,90,0.00,,,0.01,VWS V14.01,2013-05-22 06:36:00,
2013-05-22 01:41:00,46.1,43.3,29.71,NE,53,7.0,14.0,90,0.01,,,0.02,VWS V14.01,2013-05-22 06:41:00,
2013-05-22 01:46:00,46.0,43.2,29.71,NNE,17,5.0,14.0,90,0.01,,,0.02,VWS V14.01,2013-05-22 06:46:00,
2013-05-22 01:51:00,46.0,43.2,29.71,NNE,19,3.0,14.0,90,0.01,,,0.02,VWS V14.01,2013-05-22 06:51:00,
2013-05-22 01:56:00,46.0,43.2,29.71,NNE,18,5.0,14.0,90,0.01,,,0.02,VWS V14.01,2013-05-22 06:56:00,
2013-05-22 02:01:00,45.9,43.1,29.71,North,351,7.0,7.0,90,0.01,,,0.02,VWS V14.01,2013-05-22 07:01:00,
2013-05-22 02:06:00,45.9,43.1,29.71,North,6,2.0,9.0,90,0.01,,,0.02,VWS V14.01,2013-05-22 07:06:00,
2013-05-22 02:11:00,46.0,43.2,29.70,North,6,6.0,9.0,90,0.01,,,0.02,VWS V14.01,2013-05-22 07:11:00,
2013-05-22 02:16:00,45.9,43.1,29.70,NNW,329,7.0,14.0,90,0.01,,,0.02,VWS V14.01,2013-05-22 07:16:00,
2013-05-22 02:21:00,45.8,43.0,29.70,North,351,6.0,14.0,90,0.01,,,0.02,VWS V14.01,2013-05-22 07:21:00,
2013-05-22 02:26:00,45.8,43.0,29.70,North,354,7.0,14.0,90,0.01,,,0.02,VWS V14.01,2013-05-22 07:26:00,
2013-05-22 02:31:00,45.8,43.0,29.70,North,6,4.0,6.0,90,0.01,,,0.02,VWS V14.01,2013-05-22 07:31:00,
2013-05-22 02:36:00,45.8,43.0,29.70,NNW,339,7.0,9.0,90,0.01,,,0.02,VWS V14.01,2013-05-22 07:36:00,
2013-05-22 02:41:00,45.7,42.9,29.70,NNE,12,5.0,10.0,90,0.01,,,0.02,VWS V14.01,2013-05-22 07:41:00,
2013-05-22 02:46:00,45.6,42.8,29.70,North,360,4.0,10.0,90,0.01,,,0.02,VWS V14.01,2013-05-22 07:46:00,
2013-05-22 02:51:00,45.6,42.8,29.71,NNW,347,8.0,10.0,90,0.01,,,0.02,VWS V14.01,2013-05-22 07:51:00,
2013-05-22 02:56:00,45.5,42.7,29.70,NNW,332,2.0,10.0,90,0.01,,,0.02,VWS V14.01,2013-05-22 07:56:00,
2013-05-22 03:00:00,45.6,42.8,29.71,NNE,15,3.0,10.0,90,0.01,,,0.02,VWS V15.00,2013-05-22 08:00:00,
2013-05-22 03:01:00,45.6,42.8,29.71,NNE,19,7.0,8.0,90,0.00,,,0.02,VWS V14.01,2013-05-22 08:01:00,
2013-05-22 03:06:00,45.5,42.7,29.71,North,8,4.0,11.0,90,0.00,,,0.02,VWS V14.01,2013-05-22 08:06:00,
2013-05-22 03:11:00,45.5,42.7,29.70,NNE,33,7.0,12.0,90,0.00,,,0.02,VWS V14.01,2013-05-22 08:11:00,
2013-05-22 03:16:00,45.4,42.6,29.70,NNW,347,8.0,12.0,90,0.00,,,0.02,VWS V14.01,2013-05-22 08:16:00,
2013-05-22 03:22:00,45.4,42.6,29.71,North,5,5.0,12.0,90,0.00,,,0.02,VWS V14.01,2013-05-22 08:22:00,
2013-05-22 03:27:00,45.3,42.5,29.71,NNE,21,7.0,13.0,90,0.00,,,0.02,VWS V14.01,2013-05-22 08:27:00,
2013-05-22 03:32:00,45.2,42.5,29.71,NNE,29,7.0,12.0,90,0.00,,,0.02,VWS V14.01,2013-05-22 08:32:00,
2013-05-22 03:37:00,45.2,42.5,29.71,NNE,22,7.0,12.0,90,0.00,,,0.02,VWS V14.01,2013-05-22 08:37:00,
2013-05-22 03:42:00,45.1,42.3,29.71,NNE,15,6.0,17.0,90,0.00,,,0.02,VWS V14.01,2013-05-22 08:42:00,
2013-05-22 03:47:00,45.1,42.3,29.71,NNW,336,0.0,17.0,90,0.00,,,0.02,VWS V14.01,2013-05-22 08:47:00,
2013-05-22 03:52:00,45.2,42.5,29.71,North,3,4.0,17.0,90,0.00,,,0.02,VWS V14.01,2013-05-22 08:52:00,
2013-05-22 03:57:00,45.1,42.3,29.72,NNE,29,0.0,17.0,90,0.00,,,0.02,VWS V14.01,2013-05-22 08:57:00,
2013-05-22 04:00:00,45.1,42.3,29.72,North,359,5.0,17.0,90,0.00,,,0.02,VWS V15.00,2013-05-22 09:00:00,
2013-05-22 04:02:00,45.1,42.3,29.72,NNW,348,4.0,7.0,90,0.00,,,0.02,VWS V14.01,2013-05-22 09:02:00,
2013-05-22 04:07:00,45.1,42.3,29.72,NNE,30,5.0,11.0,90,0.00,,,0.02,VWS V14.01,2013-05-22 09:07:00,
2013-05-22 04:12:00,45.1,42.3,29.72,North,2,3.0,11.0,90,0.00,,,0.02,VWS V14.01,2013-05-22 09:12:00,
2013-05-22 04:17:00,45.0,42.2,29.72,North,360,3.0,11.0,90,0.00,,,0.02,VWS V14.01,2013-05-22 09:17:00,
2013-05-22 04:22:00,45.0,42.2,29.72,North,351,6.0,12.0,90,0.00,,,0.02,VWS V14.01,2013-05-22 09:22:00,
2013-05-22 04:27:00,45.0,42.2,29.72,NNE,17,6.0,12.0,90,0.00,,,0.02,VWS V14.01,2013-05-22 09:27:00,
2013-05-22 04:30:00,44.9,42.2,29.72,North,7,3.0,12.0,90,0.00,,,0.02,VWS V15.00,2013-05-22 09:30:00,
2013-05-22 04:32:00,44.9,42.2,29.72,NNE,15,6.0,7.0,90,0.00,,,0.02,VWS V14.01,2013-05-22 09:32:00,
2013-05-22 04:37:00,44.9,42.2,29.72,NNW,348,0.0,10.0,90,0.00,,,0.02,VWS V14.01,2013-05-22 09:37:00,
2013-05-22 04:42:00,45.0,42.2,29.72,North,2,5.0,10.0,90,0.00,,,0.02,VWS V14.01,2013-05-22 09:42:00,
2013-05-22 04:47:00,44.9,42.2,29.73,North,357,6.0,10.0,90,0.00,,,0.02,VWS V14.01,2013-05-22 09:47:00,
2013-05-22 04:52:00,44.8,42.0,29.73,NE,40,10.0,14.0,90,0.00,,,0.02,VWS V14.01,2013-05-22 09:52:00,
2013-05-22 04:57:00,44.7,42.0,29.72,North,356,5.0,14.0,90,0.00,,,0.02,VWS V14.01,2013-05-22 09:57:00,
2013-05-22 05:02:00,44.6,41.8,29.73,NE,37,3.0,13.0,90,0.00,,,0.02,VWS V14.01,2013-05-22 10:02:00,
2013-05-22 05:07:00,44.5,41.8,29.72,North,3,3.0,13.0,90,0.00,,,0.02,VWS V14.01,2013-05-22 10:07:00,
2013-05-22 05:12:00,44.5,41.8,29.72,North,2,5.0,13.0,90,0.00,,,0.02,VWS V14.01,2013-05-22 10:12:00,
2013-05-22 05:17:00,44.5,41.8,29.72,NNE,27,2.0,13.0,90,0.00,,,0.02,VWS V14.01,2013-05-22 10:17:00,
2013-05-22 05:22:00,44.5,41.8,29.72,NNE,13,3.0,13.0,90,0.00,,,0.02,VWS V14.01,2013-05-22 10:22:00,
2013-05-22 05:27:00,44.5,41.8,29.73,North,3,4.0,13.0,90,0.00,,,0.02,VWS V14.01,2013-05-22 10:27:00,
2013-05-22 05:32:00,44.5,41.8,29.73,North,359,5.0,9.0,90,0.00,,,0.02,VWS V14.01,2013-05-22 10:32:00,
2013-05-22 05:37:00,44.5,41.8,29.73,North,4,5.0,9.0,90,0.00,,,0.02,VWS V14.01,2013-05-22 10:37:00,
2013-05-22 05:43:00,44.6,41.8,29.73,NNE,25,1.0,9.0,90,0.00,,,0.02,VWS V14.01,2013-05-22 10:43:00,
2013-05-22 05:48:00,44.7,42.0,29.73,NNW,331,3.0,9.0,90,0.00,,,0.02,VWS V14.01,2013-05-22 10:48:00,
2013-05-22 05:53:00,44.6,41.8,29.72,North,356,1.0,13.0,90,0.00,,,0.02,VWS V14.01,2013-05-22 10:53:00,
2013-05-22 05:58:00,44.6,41.8,29.72,North,358,2.0,13.0,90,0.00,,,0.02,VWS V14.01,2013-05-22 10:58:00,
2013-05-22 06:03:00,44.6,41.8,29.72,NNE,13,1.0,9.0,90,0.00,,,0.02,VWS V14.01,2013-05-22 11:03:00,
2013-05-22 06:08:00,44.6,41.8,29.72,North,353,3.0,14.0,90,0.00,,,0.02,VWS V14.01,2013-05-22 11:08:00,
2013-05-22 06:13:00,44.5,41.8,29.72,North,354,7.0,14.0,90,0.00,,,0.02,VWS V14.01,2013-05-22 11:13:00,
2013-05-22 06:18:00,44.5,41.8,29.72,NNW,346,5.0,14.0,90,0.00,,,0.02,VWS V14.01,2013-05-22 11:18:00,
2013-05-22 06:23:00,44.6,41.8,29.72,North,350,9.0,14.0,90,0.00,,,0.02,VWS V14.01,2013-05-22 11:23:00,
2013-05-22 06:28:00,44.7,42.2,29.72,North,356,7.0,14.0,91,0.00,,,0.02,VWS V14.01,2013-05-22 11:28:00,
2013-05-22 06:33:00,44.7,42.2,29.72,NNE,29,2.0,10.0,91,0.00,,,0.02,VWS V14.01,2013-05-22 11:33:00,
2013-05-22 06:38:00,44.8,42.3,29.72,North,358,4.0,10.0,91,0.00,,,0.02,VWS V14.01,2013-05-22 11:38:00,
2013-05-22 06:43:00,44.8,42.3,29.72,NNE,25,6.0,10.0,91,0.00,,,0.02,VWS V14.01,2013-05-22 11:43:00,
2013-05-22 06:48:00,44.8,42.0,29.72,NNE,21,5.0,10.0,90,0.00,,,0.02,VWS V14.01,2013-05-22 11:48:00,
2013-05-22 06:53:00,44.7,42.2,29.72,NNW,343,10.0,11.0,91,0.00,,,0.02,VWS V14.01,2013-05-22 11:53:00,
2013-05-22 06:58:00,44.7,42.2,29.72,North,2,7.0,13.0,91,0.00,,,0.02,VWS V14.01,2013-05-22 11:58:00,
2013-05-22 07:03:00,44.7,42.2,29.73,NNE,20,3.0,13.0,91,0.00,,,0.02,VWS V14.01,2013-05-22 12:03:00,
2013-05-22 07:08:00,44.8,42.3,29.73,NNE,27,2.0,13.0,91,0.00,,,0.02,VWS V14.01,2013-05-22 12:08:00,
2013-05-22 07:13:00,44.9,42.4,29.73,North,10,3.0,13.0,91,0.00,,,0.02,VWS V14.01,2013-05-22 12:13:00,
2013-05-22 07:18:00,44.9,42.4,29.73,NNW,345,3.0,13.0,91,0.00,,,0.02,VWS V14.01,2013-05-22 12:18:00,
2013-05-22 07:23:00,45.0,42.5,29.73,North,359,5.0,13.0,91,0.00,,,0.02,VWS V14.01,2013-05-22 12:23:00,
2013-05-22 07:28:00,45.1,42.6,29.73,NNE,15,3.0,13.0,91,0.00,,,0.02,VWS V14.01,2013-05-22 12:28:00,
2013-05-22 07:33:00,45.0,42.5,29.73,NNE,13,5.0,13.0,91,0.00,,,0.02,VWS V14.01,2013-05-22 12:33:00,
2013-05-22 07:38:00,44.9,42.4,29.73,NNE,19,5.0,13.0,91,0.00,,,0.02,VWS V14.01,2013-05-22 12:38:00,
2013-05-22 07:43:00,45.0,42.5,29.73,NNW,347,6.0,13.0,91,0.00,,,0.02,VWS V14.01,2013-05-22 12:43:00,
2013-05-22 07:48:00,45.0,42.5,29.73,North,354,5.0,13.0,91,0.00,,,0.02,VWS V14.01,2013-05-22 12:48:00,
2013-05-22 07:54:00,45.0,42.5,29.73,NNE,16,3.0,13.0,91,0.00,,,0.02,VWS V14.01,2013-05-22 12:54:00,
2013-05-22 07:59:00,45.1,42.6,29.73,NNW,329,5.0,13.0,91,0.00,,,0.02,VWS V14.01,2013-05-22 12:59:00,
2013-05-22 08:00:00,45.1,42.6,29.73,North,8,6.0,13.0,91,0.00,,,0.02,VWS V15.00,2013-05-22 13:00:00,
2013-05-22 08:04:00,45.1,42.6,29.73,NNW,348,5.0,11.0,91,0.00,,,0.02,VWS V14.01,2013-05-22 13:04:00,
2013-05-22 08:09:00,45.1,42.6,29.73,North,356,8.0,12.0,91,0.00,,,0.02,VWS V14.01,2013-05-22 13:09:00,
2013-05-22 08:14:00,45.1,42.6,29.74,NNW,343,1.0,12.0,91,0.00,,,0.02,VWS V14.01,2013-05-22 13:14:00,
2013-05-22 08:19:00,45.2,42.7,29.73,NW,316,6.0,13.0,91,0.00,,,0.02,VWS V14.01,2013-05-22 13:19:00,
2013-05-22 08:24:00,45.3,42.8,29.74,North,356,5.0,13.0,91,0.00,,,0.02,VWS V14.01,2013-05-22 13:24:00,
2013-05-22 08:29:00,45.4,42.9,29.74,NNW,341,5.0,13.0,91,0.00,,,0.02,VWS V14.01,2013-05-22 13:29:00,
2013-05-22 08:30:00,45.4,42.9,29.74,NNW,348,3.0,13.0,91,0.00,,,0.02,VWS V15.00,2013-05-22 13:30:00,
2013-05-22 08:34:00,45.4,42.9,29.74,NNW,343,6.0,9.0,91,0.00,,,0.02,VWS V14.01,2013-05-22 13:34:00,
2013-05-22 08:39:00,45.6,43.1,29.74,NNE,15,7.0,12.0,91,0.00,,,0.02,VWS V14.01,2013-05-22 13:39:00,
2013-05-22 08:44:00,45.6,43.1,29.74,North,351,2.0,12.0,91,0.00,,,0.02,VWS V14.01,2013-05-22 13:44:00,
2013-05-22 08:49:00,45.7,43.2,29.74,NNE,19,7.0,12.0,91,0.00,,,0.02,VWS V14.01,2013-05-22 13:49:00,
2013-05-22 08:54:00,45.7,43.2,29.74,NNW,338,6.0,13.0,91,0.00,,,0.02,VWS V14.01,2013-05-22 13:54:00,
2013-05-22 08:59:00,45.8,43.3,29.74,North,360,6.0,13.0,91,0.00,,,0.02,VWS V14.01,2013-05-22 13:59:00,
2013-05-22 09:00:00,45.8,43.3,29.75,NNE,13,5.0,13.0,91,0.00,,,0.02,VWS V15.00,2013-05-22 14:00:00,
2013-05-22 09:04:00,46.0,43.5,29.75,North,6,10.0,11.0,91,0.00,,,0.02,VWS V14.01,2013-05-22 14:04:00,
2013-05-22 09:09:00,45.9,43.4,29.75,North,9,6.0,12.0,91,0.00,,,0.02,VWS V14.01,2013-05-22 14:09:00,
2013-05-22 09:14:00,46.0,43.5,29.75,North,354,9.0,15.0,91,0.00,,,0.02,VWS V14.01,2013-05-22 14:14:00,
2013-05-22 09:19:00,46.1,43.6,29.75,NNW,327,12.0,15.0,91,0.00,,,0.02,VWS V14.01,2013-05-22 14:19:00,
2013-05-22 09:24:00,46.1,43.6,29.75,NNE,19,7.0,15.0,91,0.00,,,0.02,VWS V14.01,2013-05-22 14:24:00,
2013-05-22 09:29:00,46.2,43.7,29.75,North,358,5.0,15.0,91,0.00,,,0.02,VWS V14.01,2013-05-22 14:29:00,
2013-05-22 09:34:00,46.3,43.8,29.75,North,349,6.0,14.0,91,0.00,,,0.02,VWS V14.01,2013-05-22 14:34:00,
2013-05-22 09:40:00,46.4,43.9,29.75,NNE,20,6.0,14.0,91,0.00,,,0.02,VWS V14.01,2013-05-22 14:40:00,
2013-05-22 09:45:00,46.5,44.0,29.75,North,10,7.0,14.0,91,0.00,,,0.02,VWS V14.01,2013-05-22 14:45:00,
2013-05-22 09:50:00,46.5,44.0,29.75,North,5,6.0,14.0,91,0.00,,,0.02,VWS V14.01,2013-05-22 14:50:00,
2013-05-22 09:55:00,46.5,44.0,29.75,NNW,348,12.0,17.0,91,0.00,,,0.02,VWS V14.01,2013-05-22 14:55:00,
2013-05-22 10:00:00,46.5,44.0,29.75,NNE,15,8.0,17.0,91,0.00,,,0.02,VWS V14.01,2013-05-22 15:00:00,
2013-05-22 10:05:00,46.5,44.0,29.75,NW,322,9.0,16.0,91,0.00,,,0.02,VWS V14.01,2013-05-22 15:05:00,
2013-05-22 10:10:00,46.5,44.0,29.75,North,11,10.0,16.0,91,0.00,,,0.02,VWS V14.01,2013-05-22 15:10:00,
2013-05-22 10:15:00,46.6,44.1,29.75,NNE,24,6.0,16.0,91,0.00,,,0.02,VWS V14.01,2013-05-22 15:15:00,
2013-05-22 10:20:00,46.7,44.2,29.76,North,354,6.0,16.0,91,0.00,,,0.02,VWS V14.01,2013-05-22 15:20:00,
2013-05-22 10:25:00,46.7,44.2,29.76,NNE,19,9.0,16.0,91,0.00,,,0.02,VWS V14.01,2013-05-22 15:25:00,
2013-05-22 10:30:00,46.7,44.2,29.76,NNW,341,6.0,16.0,91,0.00,,,0.02,VWS V14.01,2013-05-22 15:30:00,
2013-05-22 10:35:00,46.8,44.3,29.76,North,354,5.0,15.0,91,0.00,,,0.02,VWS V14.01,2013-05-22 15:35:00,
2013-05-22 10:40:00,46.9,44.4,29.76,NNW,346,8.0,15.0,91,0.00,,,0.02,VWS V14.01,2013-05-22 15:40:00,
2013-05-22 10:45:00,47.1,44.3,29.76,North,358,4.0,15.0,90,0.01,,,0.03,VWS V14.01,2013-05-22 15:45:00,
2013-05-22 10:50:00,47.2,44.7,29.76,North,3,6.0,15.0,91,0.01,,,0.03,VWS V14.01,2013-05-22 15:50:00,
2013-05-22 10:55:00,47.4,44.9,29.76,NNW,333,5.0,15.0,91,0.01,,,0.03,VWS V14.01,2013-05-22 15:55:00,
2013-05-22 11:00:00,47.5,45.0,29.76,NNE,17,10.0,15.0,91,0.01,,,0.03,VWS V14.01,2013-05-22 16:00:00,
2013-05-22 11:05:00,47.6,44.8,29.76,North,357,10.0,12.0,90,0.01,,,0.03,VWS V14.01,2013-05-22 16:05:00,
2013-05-22 11:10:00,47.6,44.8,29.77,NNE,13,14.0,14.0,90,0.01,,,0.03,VWS V14.01,2013-05-22 16:10:00,
2013-05-22 11:15:00,47.7,44.9,29.77,NNE,26,16.0,17.0,90,0.01,,,0.03,VWS V14.01,2013-05-22 16:15:00,
2013-05-22 11:20:00,47.8,45.0,29.77,North,7,11.0,17.0,90,0.01,,,0.03,VWS V14.01,2013-05-22 16:20:00,
2013-05-22 11:25:00,47.9,45.1,29.77,NNW,348,6.0,17.0,90,0.01,,,0.03,VWS V14.01,2013-05-22 16:25:00,
2013-05-22 11:30:00,48.1,45.3,29.77,NNE,18,4.0,17.0,90,0.01,,,0.03,VWS V14.01,2013-05-22 16:30:00,
2013-05-22 11:35:00,48.2,45.4,29.77,North,1,6.0,17.0,90,0.01,,,0.03,VWS V14.01,2013-05-22 16:35:00,
2013-05-22 11:41:00,48.4,45.3,29.77,North,9,7.0,17.0,89,0.01,,,0.03,VWS V14.01,2013-05-22 16:41:00,
2013-05-22 11:46:00,48.5,45.4,29.77,NNE,18,9.0,17.0,89,0.01,,,0.03,VWS V14.01,2013-05-22 16:46:00,
2013-05-22 11:51:00,48.6,45.5,29.77,NNW,348,6.0,17.0,89,0.01,,,0.03,VWS V14.01,2013-05-22 16:51:00,
2013-05-22 11:56:00,48.6,45.5,29.78,North,2,10.0,17.0,89,0.02,,,0.04,VWS V14.01,2013-05-22 16:56:00,
2013-05-22 12:00:00,48.6,45.5,29.78,North,11,14.0,17.0,89,0.02,,,0.04,VWS V15.00,2013-05-22 17:00:00,
2013-05-22 12:01:00,48.6,45.5,29.78,North,11,14.0,17.0,89,0.02,,,0.04,VWS V14.01,2013-05-22 17:01:00,
2013-05-22 12:06:00,48.7,45.6,29.78,NNE,25,3.0,15.0,89,0.01,,,0.04,VWS V14.01,2013-05-22 17:06:00,
2013-05-22 12:11:00,48.7,45.6,29.78,North,356,11.0,16.0,89,0.01,,,0.04,VWS V14.01,2013-05-22 17:11:00,
2013-05-22 12:16:00,48.8,45.7,29.78,North,6,10.0,17.0,89,0.01,,,0.04,VWS V14.01,2013-05-22 17:16:00,
2013-05-22 12:21:00,49.0,45.9,29.78,NW,325,10.0,17.0,89,0.01,,,0.04,VWS V14.01,2013-05-22 17:21:00,
2013-05-22 12:26:00,49.2,46.1,29.78,North,356,11.0,17.0,89,0.01,,,0.04,VWS V14.01,2013-05-22 17:26:00,
2013-05-22 12:30:00,49.3,46.2,29.78,North,10,6.0,17.0,89,0.02,,,0.05,VWS V15.00,2013-05-22 17:30:00,
2013-05-22 12:31:00,49.4,46.3,29.78,NNE,20,6.0,7.0,89,0.02,,,0.05,VWS V14.01,2013-05-22 17:31:00,
2013-05-22 12:36:00,49.3,46.2,29.78,North,355,7.0,14.0,89,0.02,,,0.05,VWS V14.01,2013-05-22 17:36:00,
2013-05-22 12:41:00,49.4,46.3,29.78,North,7,10.0,14.0,89,0.02,,,0.05,VWS V14.01,2013-05-22 17:41:00,
2013-05-22 12:46:00,49.4,46.3,29.78,NNW,327,7.0,14.0,89,0.02,,,0.05,VWS V14.01,2013-05-22 17:46:00,
2013-05-22 12:51:00,49.5,46.4,29.78,North,2,6.0,14.0,89,0.02,,,0.05,VWS V14.01,2013-05-22 17:51:00,
2013-05-22 12:56:00,49.6,46.5,29.78,NNW,348,9.0,14.0,89,0.02,,,0.05,VWS V14.01,2013-05-22 17:56:00,
2013-05-22 13:01:00,49.8,46.7,29.79,NNE,17,4.0,11.0,89,0.01,,,0.05,VWS V14.01,2013-05-22 18:01:00,
2013-05-22 13:06:00,49.9,46.8,29.79,NNW,347,2.0,13.0,89,0.01,,,0.05,VWS V14.01,2013-05-22 18:06:00,
2013-05-22 13:11:00,50.0,46.6,29.79,North,353,6.0,14.0,88,0.01,,,0.05,VWS V14.01,2013-05-22 18:11:00,
2013-05-22 13:16:00,50.1,46.7,29.79,NNW,340,3.0,14.0,88,0.01,,,0.05,VWS V14.01,2013-05-22 18:16:00,
2013-05-22 13:21:00,50.3,46.9,29.79,North,360,6.0,14.0,88,0.01,,,0.05,VWS V14.01,2013-05-22 18:21:00,
2013-05-22 13:26:00,50.4,47.0,29.79,North,9,11.0,14.0,88,0.01,,,0.05,VWS V14.01,2013-05-22 18:26:00,
2013-05-22 13:31:00,50.5,47.1,29.79,NNW,341,1.0,4.0,88,0.00,,,0.05,VWS V14.01,2013-05-22 18:31:00,
2013-05-22 13:36:00,50.7,47.3,29.79,North,350,6.0,15.0,88,0.00,,,0.05,VWS V14.01,2013-05-22 18:36:00,
2013-05-22 13:41:00,50.9,47.5,29.79,NNW,342,4.0,15.0,88,0.01,,,0.06,VWS V14.01,2013-05-22 18:41:00,
2013-05-22 13:46:00,51.2,47.8,29.80,North,6,12.0,15.0,88,0.01,,,0.06,VWS V14.01,2013-05-22 18:46:00,
2013-05-22 13:52:00,51.3,47.9,29.80,NE,38,3.0,15.0,88,0.01,,,0.06,VWS V14.01,2013-05-22 18:52:00,
2013-05-22 13:57:00,51.3,47.6,29.80,NNE,31,6.0,15.0,87,0.01,,,0.06,VWS V14.01,2013-05-22 18:57:00,
2013-05-22 14:00:00,51.4,47.7,29.80,North,356,10.0,15.0,87,0.01,,,0.06,VWS V15.00,2013-05-22 19:00:00,
2013-05-22 14:02:00,51.4,47.7,29.80,NNE,13,15.0,16.0,87,0.01,,,0.06,VWS V14.01,2013-05-22 19:02:00,
2013-05-22 14:07:00,51.4,47.7,29.80,North,360,5.0,16.0,87,0.01,,,0.06,VWS V14.01,2013-05-22 19:07:00,
2013-05-22 14:12:00,51.5,47.8,29.80,NNE,12,5.0,16.0,87,0.01,,,0.06,VWS V14.01,2013-05-22 19:12:00,
2013-05-22 14:17:00,51.4,47.4,29.80,North,357,11.0,16.0,86,0.01,,,0.06,VWS V14.01,2013-05-22 19:17:00,
2013-05-22 14:22:00,51.4,47.4,29.81,NW,305,7.0,16.0,86,0.01,,,0.06,VWS V14.01,2013-05-22 19:22:00,
2013-05-22 14:27:00,51.4,47.0,29.81,North,10,4.0,16.0,85,0.01,,,0.06,VWS V14.01,2013-05-22 19:27:00,
2013-05-22 14:32:00,51.5,47.2,29.81,North,356,6.0,12.0,85,0.01,,,0.06,VWS V14.01,2013-05-22 19:32:00,
2013-05-22 14:37:00,51.5,47.2,29.81,NNW,346,13.0,15.0,85,0.01,,,0.06,VWS V14.01,2013-05-22 19:37:00,
2013-05-22 14:42:00,51.6,47.2,29.81,NNE,17,9.0,15.0,85,0.01,,,0.06,VWS V14.01,2013-05-22 19:42:00,
2013-05-22 14:47:00,51.7,47.7,29.81,North,356,9.0,15.0,86,0.01,,,0.06,VWS V14.01,2013-05-22 19:47:00,
2013-05-22 14:52:00,51.8,47.4,29.81,NW,312,4.0,15.0,85,0.01,,,0.06,VWS V14.01,2013-05-22 19:52:00,
2013-05-22 14:57:00,51.8,47.4,29.81,North,4,6.0,15.0,85,0.01,,,0.06,VWS V14.01,2013-05-22 19:57:00,
2013-05-22 15:02:00,51.8,47.4,29.81,North,353,12.0,15.0,85,0.00,,,0.06,VWS V14.01,2013-05-22 20:02:00,
2013-05-22 15:07:00,51.8,47.4,29.82,North,350,6.0,15.0,85,0.00,,,0.06,VWS V14.01,2013-05-22 20:07:00,
2013-05-22 15:12:00,51.7,47.3,29.82,NNE,14,6.0,15.0,85,0.00,,,0.06,VWS V14.01,2013-05-22 20:12:00,
2013-05-22 15:17:00,51.6,47.2,29.82,NNW,346,9.0,15.0,85,0.00,,,0.06,VWS V14.01,2013-05-22 20:17:00,
2013-05-22 15:22:00,51.5,47.2,29.82,NNW,346,7.0,15.0,85,0.00,,,0.06,VWS V14.01,2013-05-22 20:22:00,
2013-05-22 15:27:00,51.5,47.2,29.82,North,360,7.0,15.0,85,0.00,,,0.06,VWS V14.01,2013-05-22 20:27:00,
2013-05-22 15:33:00,51.5,47.2,29.82,North,360,11.0,15.0,85,0.00,,,0.06,VWS V14.01,2013-05-22 20:33:00,
2013-05-22 15:38:00,51.5,46.8,29.82,NNW,331,10.0,17.0,84,0.00,,,0.06,VWS V14.01,2013-05-22 20:38:00,
2013-05-22 15:43:00,51.6,47.2,29.82,North,352,10.0,17.0,85,0.00,,,0.06,VWS V14.01,2013-05-22 20:43:00,
2013-05-22 15:48:00,51.7,47.3,29.83,North,350,5.0,17.0,85,0.00,,,0.06,VWS V14.01,2013-05-22 20:48:00,
2013-05-22 15:53:00,51.7,47.0,29.83,North,350,6.0,17.0,84,0.00,,,0.06,VWS V14.01,2013-05-22 20:53:00,
2013-05-22 15:58:00,51.7,47.0,29.83,NNE,14,7.0,17.0,84,0.00,,,0.06,VWS V14.01,2013-05-22 20:58:00,
2013-05-22 16:03:00,51.6,46.9,29.83,NNW,332,6.0,15.0,84,0.00,,,0.06,VWS V14.01,2013-05-22 21:03:00,
2013-05-22 16:08:00,51.5,46.8,29.83,North,10,13.0,15.0,84,0.00,,,0.06,VWS V14.01,2013-05-22 21:08:00,
2013-05-22 16:13:00,51.6,47.2,29.83,North,360,13.0,19.0,85,0.00,,,0.06,VWS V14.01,2013-05-22 21:13:00,
2013-05-22 16:18:00,51.5,47.2,29.83,North,353,5.0,19.0,85,0.00,,,0.06,VWS V14.01,2013-05-22 21:18:00,
2013-05-22 16:23:00,51.4,46.7,29.83,NNE,12,8.0,19.0,84,0.00,,,0.06,VWS V14.01,2013-05-22 21:23:00,
2013-05-22 16:28:00,51.4,46.7,29.84,North,2,4.0,19.0,84,0.00,,,0.06,VWS V14.01,2013-05-22 21:28:00,
2013-05-22 16:33:00,51.5,46.8,29.84,North,2,9.0,17.0,84,0.00,,,0.06,VWS V14.01,2013-05-22 21:33:00,
2013-05-22 16:38:00,51.4,46.7,29.84,NNW,341,4.0,21.0,84,0.00,,,0.06,VWS V14.01,2013-05-22 21:38:00,
2013-05-22 16:43:00,51.3,46.3,29.84,North,2,8.0,23.0,83,0.00,,,0.06,VWS V14.01,2013-05-22 21:43:00,
2013-05-22 16:48:00,51.2,46.2,29.84,NW,325,4.0,23.0,83,0.00,,,0.06,VWS V14.01,2013-05-22 21:48:00,
2013-05-22 16:53:00,51.3,46.3,29.84,NNE,14,11.0,23.0,83,0.00,,,0.06,VWS V14.01,2013-05-22 21:53:00,
2013-05-22 16:58:00,51.3,46.3,29.84,North,360,8.0,23.0,83,0.00,,,0.06,VWS V14.01,2013-05-22 21:58:00,
2013-05-22 17:03:00,51.3,46.6,29.85,North,4,10.0,16.0,84,0.00,,,0.06,VWS V14.01,2013-05-22 22:03:00,
2013-05-22 17:08:00,51.2,46.2,29.84,NNE,17,5.0,17.0,83,0.00,,,0.06,VWS V14.01,2013-05-22 22:08:00,
2013-05-22 17:13:00,51.2,46.2,29.85,NNW,346,10.0,17.0,83,0.00,,,0.06,VWS V14.01,2013-05-22 22:13:00,
2013-05-22 17:18:00,51.3,46.3,29.85,NNW,341,11.0,19.0,83,0.00,,,0.06,VWS V14.01,2013-05-22 22:18:00,
2013-05-22 17:23:00,51.4,46.4,29.85,North,350,11.0,19.0,83,0.00,,,0.06,VWS V14.01,2013-05-22 22:23:00,
2013-05-22 17:28:00,51.5,46.5,29.85,North,359,14.0,20.0,83,0.00,,,0.06,VWS V14.01,2013-05-22 22:28:00,
2013-05-22 17:30:00,51.5,46.5,29.86,NNE,31,8.0,21.0,83,0.00,,,0.06,VWS V15.00,2013-05-22 22:30:00,
2013-05-22 17:33:00,51.5,46.5,29.86,ENE,63,15.0,15.0,83,0.00,,,0.06,VWS V14.01,2013-05-22 22:33:00,
2013-05-22 17:38:00,51.5,46.2,29.86,North,360,8.0,20.0,82,0.00,,,0.06,VWS V14.01,2013-05-22 22:38:00,
2013-05-22 17:43:00,51.6,46.3,29.86,NNW,343,8.0,21.0,82,0.00,,,0.06,VWS V14.01,2013-05-22 22:43:00,
2013-05-22 17:49:00,51.7,46.4,29.86,North,356,5.0,21.0,82,0.00,,,0.06,VWS V14.01,2013-05-22 22:49:00,
2013-05-22 17:54:00,51.7,46.4,29.86,North,360,6.0,21.0,82,0.00,,,0.06,VWS V14.01,2013-05-22 22:54:00,
2013-05-22 17:59:00,51.7,46.7,29.86,NNE,15,13.0,21.0,83,0.00,,,0.06,VWS V14.01,2013-05-22 22:59:00,
2013-05-22 18:04:00,51.7,46.7,29.86,North,356,9.0,15.0,83,0.00,,,0.06,VWS V14.01,2013-05-22 23:04:00,
2013-05-22 18:09:00,51.7,46.7,29.87,North,5,8.0,15.0,83,0.00,,,0.06,VWS V14.01,2013-05-22 23:09:00,
2013-05-22 18:14:00,51.7,46.7,29.87,NNE,17,17.0,21.0,83,0.00,,,0.06,VWS V14.01,2013-05-22 23:14:00,
2013-05-22 18:19:00,51.6,46.9,29.87,NE,48,6.0,21.0,84,0.00,,,0.06,VWS V14.01,2013-05-22 23:19:00,
2013-05-22 18:24:00,51.5,46.8,29.87,North,5,14.0,21.0,84,0.00,,,0.06,VWS V14.01,2013-05-22 23:24:00,
2013-05-22 18:29:00,51.5,46.8,29.87,NNW,346,11.0,21.0,84,0.00,,,0.06,VWS V14.01,2013-05-22 23:29:00,
2013-05-22 18:30:00,51.4,46.7,29.87,NE,47,10.0,21.0,84,0.00,,,0.06,VWS V15.00,2013-05-22 23:30:00,
2013-05-22 18:34:00,51.4,46.7,29.88,North,10,10.0,14.0,84,0.00,,,0.06,VWS V14.01,2013-05-22 23:34:00,
2013-05-22 18:39:00,51.2,46.5,29.88,NNE,16,11.0,18.0,84,0.00,,,0.06,VWS V14.01,2013-05-22 23:39:00,
2013-05-22 18:44:00,51.0,46.3,29.88,North,4,11.0,18.0,84,0.00,,,0.06,VWS V14.01,2013-05-22 23:44:00,
2013-05-22 18:49:00,50.9,46.2,29.89,North,352,9.0,20.0,84,0.00,,,0.06,VWS V14.01,2013-05-22 23:49:00,
2013-05-22 18:54:00,50.8,46.2,29.89,North,5,19.0,20.0,84,0.00,,,0.06,VWS V14.01,2013-05-22 23:54:00,
2013-05-22 18:59:00,50.8,46.2,29.89,NNE,25,14.0,23.0,84,0.00,,,0.06,VWS V14.01,2013-05-22 23:59:00,
2013-05-22 19:00:00,50.8,45.8,29.89,North,11,11.0,23.0,83,0.00,,,0.06,VWS V15.00,2013-05-23 00:00:00,
2013-05-22 19:04:00,50.8,45.8,29.89,NNE,17,8.0,19.0,83,0.00,,,0.06,VWS V14.01,2013-05-23 00:04:00,
2013-05-22 19:09:00,50.8,46.2,29.89,North,9,14.0,19.0,84,0.00,,,0.06,VWS V14.01,2013-05-23 00:09:00,
2013-05-22 19:14:00,50.8,46.2,29.90,North,350,4.0,19.0,84,0.00,,,0.06,VWS V14.01,2013-05-23 00:14:00,
2013-05-22 19:19:00,50.7,46.0,29.90,North,352,10.0,23.0,84,0.00,,,0.06,VWS V14.01,2013-05-23 00:19:00,
2013-05-22 19:24:00,50.8,46.2,29.90,NNE,14,9.0,23.0,84,0.00,,,0.06,VWS V14.01,2013-05-23 00:24:00,
2013-05-22 19:29:00,50.7,46.4,29.90,North,6,16.0,23.0,85,0.00,,,0.06,VWS V14.01,2013-05-23 00:29:00,
2013-05-22 19:34:00,50.5,46.2,29.90,NNE,29,9.0,19.0,85,0.00,,,0.06,VWS V14.01,2013-05-23 00:34:00,
2013-05-22 19:39:00,50.5,46.2,29.91,North,6,6.0,19.0,85,0.00,,,0.06,VWS V14.01,2013-05-23 00:39:00,
2013-05-22 19:44:00,50.6,46.3,29.91,North,6,10.0,19.0,85,0.00,,,0.06,VWS V14.01,2013-05-23 00:44:00,
2013-05-22 19:49:00,50.6,46.3,29.91,NW,314,7.0,19.0,85,0.00,,,0.06,VWS V14.01,2013-05-23 00:49:00,
2013-05-22 19:55:00,50.5,46.2,29.91,NNE,15,13.0,19.0,85,0.00,,,0.06,VWS V14.01,2013-05-23 00:55:00,
2013-05-22 20:00:00,50.4,46.1,29.91,NW,316,6.0,19.0,85,0.00,,,0.06,VWS V14.01,2013-05-23 01:00:00,
2013-05-22 20:05:00,50.2,45.9,29.91,North,4,7.0,16.0,85,0.00,,,0.06,VWS V14.01,2013-05-23 01:05:00,
2013-05-22 20:10:00,50.1,46.1,29.92,North,7,3.0,16.0,86,0.01,,,0.07,VWS V14.01,2013-05-23 01:10:00,
2013-05-22 20:15:00,50.0,46.0,29.92,NNE,27,4.0,16.0,86,0.01,,,0.07,VWS V14.01,2013-05-23 01:15:00,
2013-05-22 20:20:00,50.0,46.0,29.92,North,356,10.0,16.0,86,0.01,,,0.07,VWS V14.01,2013-05-23 01:20:00,
2013-05-22 20:25:00,49.9,45.9,29.92,North,11,4.0,16.0,86,0.01,,,0.07,VWS V14.01,2013-05-23 01:25:00,
2013-05-22 20:30:00,49.9,45.9,29.92,NNW,346,6.0,16.0,86,0.01,,,0.07,VWS V14.01,2013-05-23 01:30:00,
2013-05-22 20:35:00,49.9,45.9,29.92,NW,325,9.0,16.0,86,0.01,,,0.07,VWS V14.01,2013-05-23 01:35:00,
2013-05-22 20:40:00,50.0,45.7,29.92,North,2,17.0,25.0,85,0.01,,,0.07,VWS V14.01,2013-05-23 01:40:00,
2013-05-22 20:45:00,50.2,45.9,29.92,NNE,22,6.0,25.0,85,0.01,,,0.07,VWS V14.01,2013-05-23 01:45:00,
2013-05-22 20:50:00,50.2,45.9,29.93,NNE,24,6.0,25.0,85,0.01,,,0.07,VWS V14.01,2013-05-23 01:50:00,
2013-05-22 20:55:00,50.3,45.7,29.93,NNW,346,11.0,25.0,84,0.01,,,0.07,VWS V14.01,2013-05-23 01:55:00,
2013-05-22 21:00:00,50.4,45.8,29.93,NW,314,10.0,25.0,84,0.01,,,0.07,VWS V14.01,2013-05-23 02:00:00,
2013-05-22 21:05:00,50.5,45.5,29.93,North,5,12.0,19.0,83,0.01,,,0.07,VWS V14.01,2013-05-23 02:05:00,
2013-05-22 21:10:00,50.6,45.6,29.94,North,4,6.0,19.0,83,0.01,,,0.07,VWS V14.01,2013-05-23 02:10:00,
2013-05-22 21:15:00,50.8,45.5,29.94,NNE,16,13.0,19.0,82,0.01,,,0.07,VWS V14.01,2013-05-23 02:15:00,
2013-05-22 21:20:00,51.0,45.7,29.94,North,2,16.0,19.0,82,0.01,,,0.07,VWS V14.01,2013-05-23 02:20:00,
2013-05-22 21:25:00,51.4,45.8,29.95,North,356,7.0,19.0,81,0.01,,,0.07,VWS V14.01,2013-05-23 02:25:00,
2013-05-22 21:30:00,51.6,46.0,29.95,NE,35,6.0,19.0,81,0.01,,,0.07,VWS V14.01,2013-05-23 02:30:00,
2013-05-22 21:35:00,51.9,46.3,29.96,NE,36,14.0,21.0,81,0.00,,,0.07,VWS V14.01,2013-05-23 02:35:00,
2013-05-22 21:40:00,52.1,46.1,29.96,North,4,5.0,21.0,80,0.00,,,0.07,VWS V14.01,2013-05-23 02:40:00,
2013-05-22 21:45:00,52.5,46.2,29.97,North,7,8.0,22.0,79,0.00,,,0.07,VWS V14.01,2013-05-23 02:45:00,
2013-05-22 21:50:00,52.7,46.0,29.97,NNE,28,9.0,22.0,78,0.00,,,0.07,VWS V14.01,2013-05-23 02:50:00,
2013-05-22 21:55:00,53.0,46.0,29.97,NNE,23,12.0,22.0,77,0.00,,,0.07,VWS V14.01,2013-05-23 02:55:00,
2013-05-22 22:00:00,53.1,45.4,29.97,NNE,14,13.0,22.0,75,0.00,,,0.07,VWS V14.01,2013-05-23 03:00:00,
2013-05-22 22:06:00,53.3,45.2,29.97,NNE,17,17.0,22.0,74,0.00,,,0.07,VWS V14.01,2013-05-23 03:06:00,
2013-05-22 22:11:00,53.5,44.7,29.97,North,353,14.0,22.0,72,0.00,,,0.07,VWS V14.01,2013-05-23 03:11:00,
2013-05-22 22:16:00,53.9,44.3,29.98,North,4,13.0,22.0,70,0.00,,,0.07,VWS V14.01,2013-05-23 03:16:00,
2013-05-22 22:21:00,53.9,44.7,29.98,NNE,22,3.0,22.0,71,0.00,,,0.07,VWS V14.01,2013-05-23 03:21:00,
2013-05-22 22:26:00,53.8,44.6,29.98,NNE,15,12.0,22.0,71,0.00,,,0.07,VWS V14.01,2013-05-23 03:26:00,
2013-05-22 22:31:00,53.8,44.3,29.99,North,353,8.0,22.0,70,0.00,,,0.07,VWS V14.01,2013-05-23 03:31:00,
2013-05-22 22:36:00,53.7,44.5,29.99,NNE,15,4.0,11.0,71,0.00,,,0.07,VWS V14.01,2013-05-23 03:36:00,
2013-05-22 22:41:00,53.4,44.6,29.99,North,350,3.0,11.0,72,0.00,,,0.07,VWS V14.01,2013-05-23 03:41:00,
2013-05-22 22:46:00,53.2,44.4,29.99,North,350,12.0,14.0,72,0.00,,,0.07,VWS V14.01,2013-05-23 03:46:00,
2013-05-22 22:51:00,53.1,44.3,29.99,NNW,341,5.0,14.0,72,0.00,,,0.07,VWS V14.01,2013-05-23 03:51:00,
2013-05-22 22:56:00,52.9,44.5,30.00,North,4,10.0,14.0,73,0.00,,,0.07,VWS V14.01,2013-05-23 03:56:00,
2013-05-22 23:00:00,52.8,44.0,30.00,NNE,21,11.0,14.0,72,0.00,,,0.07,VWS V15.00,2013-05-23 04:00:00,
2013-05-22 23:01:00,52.8,44.0,30.00,NNE,21,11.0,14.0,72,0.00,,,0.07,VWS V14.01,2013-05-23 04:01:00,
2013-05-22 23:02:00,52.8,44.0,30.00,North,8,5.0,13.0,72,0.00,,,0.07,VWS V14.01,2013-05-23 04:02:00,
2013-05-22 23:03:00,52.8,44.0,30.00,North,359,5.0,13.0,72,0.00,,,0.07,VWS V14.01,2013-05-23 04:03:00,
2013-05-22 23:04:00,52.7,43.9,30.00,NNW,331,12.0,13.0,72,0.00,,,0.07,VWS V14.01,2013-05-23 04:04:00,
2013-05-22 23:09:00,52.6,43.8,30.00,NNW,335,0.0,13.0,72,0.00,,,0.07,VWS V14.01,2013-05-23 04:09:00,
2013-05-22 23:14:00,52.5,43.8,30.00,North,356,6.0,14.0,72,0.00,,,0.07,VWS V14.01,2013-05-23 04:14:00,
2013-05-22 23:19:00,52.4,43.7,30.00,North,356,5.0,14.0,72,0.00,,,0.07,VWS V14.01,2013-05-23 04:19:00,
2013-05-22 23:24:00,52.2,43.8,30.01,North,358,0.0,14.0,73,0.00,,,0.07,VWS V14.01,2013-05-23 04:24:00,
2013-05-22 23:29:00,51.8,43.4,30.01,NNW,342,5.0,14.0,73,0.00,,,0.07,VWS V14.01,2013-05-23 04:29:00,
2013-05-22 23:34:00,51.5,43.1,30.01,North,360,4.0,12.0,73,0.00,,,0.07,VWS V14.01,2013-05-23 04:34:00,
2013-05-22 23:39:00,51.4,43.0,30.01,North,1,3.0,12.0,73,0.00,,,0.07,VWS V14.01,2013-05-23 04:39:00,
2013-05-22 23:44:00,51.2,43.2,30.01,NNW,333,3.0,12.0,74,0.00,,,0.07,VWS V14.01,2013-05-23 04:44:00,
2013-05-22 23:49:00,51.0,43.0,30.01,North,351,6.0,12.0,74,0.00,,,0.07,VWS V14.01,2013-05-23 04:49:00,
2013-05-22 23:54:00,50.9,42.9,30.01,North,352,5.0,12.0,74,0.00,,,0.07,VWS V14.01,2013-05-23 04:54:00,
2013-05-22 23:59:00,50.8,42.8,30.02,North,352,6.0,12.0,74,0.00,,,0.07,VWS V14.01,2013-05-23 04:59:00,